Oelwein, IA

8:47 PM CST on December 10, 2016 (GMT -0600)
Oelwein Municipal

Weather History for KOLZ - October, 2012

Change the Weather History Date:

Thursday, October 18, 2012

  Actual Average Record
Temperature  
Mean Temperature 44 °F -  
Max Temperature 46 °F 56 °F 86 °F (1953)
Min Temperature 41 °F 36 °F 15 °F (1952)
Degree Days  
Heating Degree Days 22    
Moisture  
Dew Point 38 °F    
Average Humidity 84    
Maximum Humidity 100    
Minimum Humidity 66    
Precipitation  
Precipitation 0.02 in - - ()
Sea Level Pressure  
Sea Level Pressure 29.31 in    
Wind  
Wind Speed 14 mph (WSW)    
Max Wind Speed 20 mph    
Max Gust Speed 29 mph    
Visibility 8 miles    
Events Rain    
Averages and records for this station are not official NWS values.
T = Trace of Precipitation, MM = Missing Value Source: NWS Daily Summary

Daily Weather History Graph

Daily Weather History Graph

Search for Another Location

Airport or City:

Trip Planner

Search our weather history database for the weather conditions in past years. The results will help you decide how hot, cold, wet, or windy it might be!

Date:

Astronomy

Oct. 18, 2012 Rise Set
Actual Time 7:25 AM CDT 6:19 PM CDT
Civil Twilight 6:56 AM CDT 6:48 PM CDT
Nautical Twilight 6:23 AM CDT 7:21 PM CDT
Astronomical Twilight 5:51 AM CDT 7:53 PM CDT
Moon 11:12 AM CDT (10/18) 8:49 PM CDT (10/18)
Length of Visible Light 11h 51m
Length of Day
10h 54m
Waxing Crescent, 14% of the Moon is Illuminated
Oct 18
Waxing Crescent
Oct 21
First Quarter
Oct 29
Full
Nov 6
Last Quarter
Nov 13
New

Hourly Weather History & Observations

Time (CDT) Temp. Windchill Dew Point Humidity Pressure Visibility Wind Dir Wind Speed Gust Speed Precip Events Conditions
12:13 AM 46.4 °F 39.8 °F 35.6 °F 66% 29.34 in 10.0 mi West 16.1 mph - N/A   Clear
12:15 AM 46.4 °F 40.1 °F 35.6 °F 66% 29.34 in 10.0 mi West 15.0 mph - N/A   Clear
12:33 AM 46.4 °F 41.5 °F 37.4 °F 71% 29.34 in 10.0 mi West 10.4 mph - N/A   Clear
12:35 AM 44.6 °F 38.8 °F 35.6 °F 71% 29.34 in 10.0 mi West 11.5 mph - N/A   Clear
12:53 AM 46.4 °F 39.5 °F 35.6 °F 66% 29.34 in 10.0 mi West 17.3 mph 25.3 mph N/A   Clear
12:55 AM 44.6 °F 36.6 °F 33.8 °F 66% 29.34 in 10.0 mi West 19.6 mph 25.3 mph N/A   Clear
1:33 AM 44.6 °F 37.8 °F 35.6 °F 71% 29.34 in 10.0 mi West 15.0 mph 21.9 mph N/A   Clear
1:35 AM 44.6 °F 38.1 °F 33.8 °F 66% 29.34 in 10.0 mi West 13.8 mph 21.9 mph N/A   Clear
1:53 AM 44.6 °F 37.8 °F 35.6 °F 71% 29.34 in 10.0 mi West 15.0 mph 18.4 mph N/A   Clear
1:55 AM 44.6 °F 38.1 °F 33.8 °F 66% 29.34 in 10.0 mi West 13.8 mph - N/A   Clear
2:13 AM 44.6 °F 37.4 °F 35.6 °F 71% 29.34 in 10.0 mi West 16.1 mph - N/A   Clear
2:15 AM 44.6 °F 36.9 °F 33.8 °F 66% 29.34 in 10.0 mi West 18.4 mph 21.9 mph N/A   Clear
2:33 AM 44.6 °F 37.8 °F 35.6 °F 71% 29.34 in 10.0 mi West 15.0 mph 24.2 mph N/A   Scattered Clouds
2:35 AM 44.6 °F 38.1 °F 33.8 °F 66% 29.34 in 10.0 mi West 13.8 mph 24.2 mph N/A   Scattered Clouds
2:53 AM 44.6 °F 37.2 °F 35.6 °F 71% 29.34 in 10.0 mi West 17.3 mph 21.9 mph N/A   Scattered Clouds
2:55 AM 44.6 °F 37.2 °F 33.8 °F 66% 29.34 in 10.0 mi West 17.3 mph 21.9 mph N/A   Scattered Clouds
3:13 AM 42.8 °F 34.5 °F 37.4 °F 81% 29.34 in 10.0 mi West 18.4 mph 28.8 mph N/A   Scattered Clouds
3:15 AM 42.8 °F 34.5 °F 35.6 °F 76% 29.34 in 10.0 mi West 18.4 mph 28.8 mph N/A   Mostly Cloudy
3:33 AM 42.8 °F 35.1 °F 39.2 °F 87% 29.33 in 10.0 mi West 16.1 mph 21.9 mph N/A Rain Light Rain
3:35 AM 41.0 °F 33.1 °F 37.4 °F 87% 29.33 in 10.0 mi West 15.0 mph 21.9 mph N/A Rain Light Rain
3:53 AM 42.8 °F 36.2 °F 39.2 °F 87% 29.33 in 10.0 mi West 12.7 mph - N/A   Drizzle
3:55 AM 41.0 °F 33.1 °F 37.4 °F 87% 29.33 in 10.0 mi West 15.0 mph - N/A   Drizzle
4:13 AM 42.8 °F 36.2 °F 39.2 °F 87% 29.32 in 10.0 mi West 12.7 mph - N/A   Drizzle
4:15 AM 41.0 °F 33.5 °F 37.4 °F 87% 29.32 in 10.0 mi West 13.8 mph - N/A   Drizzle
4:33 AM 42.8 °F 35.8 °F 39.2 °F 87% 29.31 in 7.0 mi West 13.8 mph - N/A   Drizzle
4:35 AM 41.0 °F 33.5 °F 37.4 °F 87% 29.31 in 10.0 mi West 13.8 mph - N/A   Drizzle
4:53 AM 42.8 °F 35.4 °F 39.2 °F 87% 29.31 in 10.0 mi West 15.0 mph 21.9 mph N/A   Light Drizzle
5:13 AM 42.8 °F 35.1 °F 39.2 °F 87% 29.31 in 10.0 mi West 16.1 mph - N/A   Mostly Cloudy
5:15 AM 41.0 °F 32.8 °F 37.4 °F 87% 29.31 in 10.0 mi West 16.1 mph 21.9 mph N/A Rain Light Rain
5:33 AM 42.8 °F 36.2 °F 39.2 °F 87% 29.30 in 10.0 mi West 12.7 mph - N/A   Scattered Clouds
5:35 AM 41.0 °F 33.9 °F 37.4 °F 87% 29.30 in 10.0 mi West 12.7 mph - N/A   Scattered Clouds
5:53 AM 42.8 °F 35.4 °F 39.2 °F 87% 29.30 in 10.0 mi West 15.0 mph 20.7 mph N/A   Scattered Clouds
5:55 AM 41.0 °F 32.5 °F 37.4 °F 87% 29.30 in 10.0 mi West 17.3 mph 20.7 mph N/A   Scattered Clouds
6:13 AM 42.8 °F 35.8 °F 37.4 °F 81% 29.30 in 10.0 mi WSW 13.8 mph 21.9 mph N/A   Clear
6:15 AM 41.0 °F 33.1 °F 37.4 °F 87% 29.30 in 10.0 mi WSW 15.0 mph 21.9 mph N/A   Clear
6:33 AM 42.8 °F 35.8 °F 39.2 °F 87% 29.29 in 10.0 mi WSW 13.8 mph - N/A   Clear
6:35 AM 41.0 °F 34.3 °F 37.4 °F 87% 29.29 in 10.0 mi WSW 11.5 mph - N/A   Clear
6:53 AM 42.8 °F 36.2 °F 37.4 °F 81% 29.29 in 7.0 mi WSW 12.7 mph - N/A   Drizzle
6:55 AM 41.0 °F 34.7 °F 37.4 °F 87% 29.29 in 7.0 mi WSW 10.4 mph - N/A   Drizzle
7:13 AM 42.8 °F 34.3 °F 39.2 °F 87% 29.29 in 10.0 mi West 19.6 mph - N/A   Light Drizzle
7:15 AM 41.0 °F 32.8 °F 37.4 °F 87% 29.29 in 10.0 mi WSW 16.1 mph 21.9 mph N/A   Light Drizzle
7:33 AM 42.8 °F 35.1 °F 37.4 °F 81% 29.29 in 10.0 mi West 16.1 mph 23.0 mph N/A Rain Rain
7:53 AM 41.0 °F 33.1 °F 37.4 °F 87% 29.29 in 10.0 mi WSW 15.0 mph - N/A   Drizzle
7:55 AM 41.0 °F 33.5 °F 37.4 °F 87% 29.30 in 7.0 mi WSW 13.8 mph - N/A   Drizzle
8:13 AM 41.0 °F 32.2 °F 37.4 °F 87% 29.29 in 7.0 mi West 18.4 mph 21.9 mph N/A Rain Rain
8:15 AM 41.0 °F 31.9 °F 37.4 °F 87% 29.29 in 7.0 mi West 19.6 mph 25.3 mph N/A Rain Light Rain
8:33 AM 41.0 °F 33.5 °F 37.4 °F 87% 29.29 in 7.0 mi WSW 13.8 mph 20.7 mph N/A Rain Rain
8:35 AM 41.0 °F 33.1 °F 37.4 °F 87% 29.29 in 7.0 mi WSW 15.0 mph 20.7 mph N/A   Drizzle
9:13 AM 41.0 °F 33.1 °F 37.4 °F 87% 29.29 in 7.0 mi WSW 15.0 mph - N/A   Light Drizzle
9:15 AM 41.0 °F 32.2 °F 37.4 °F 87% 29.29 in 7.0 mi WSW 18.4 mph 23.0 mph N/A   Light Drizzle
9:33 AM 41.0 °F 33.1 °F 37.4 °F 87% 29.29 in 10.0 mi WSW 15.0 mph - N/A   Mostly Cloudy
9:35 AM 41.0 °F 33.5 °F 37.4 °F 87% 29.29 in 10.0 mi WSW 13.8 mph - N/A   Mostly Cloudy
9:53 AM 41.0 °F 32.5 °F 37.4 °F 87% 29.28 in 7.0 mi WSW 17.3 mph 21.9 mph N/A   Drizzle
9:55 AM 41.0 °F 33.1 °F 35.6 °F 81% 29.29 in 7.0 mi WSW 15.0 mph 21.9 mph N/A   Drizzle
10:13 AM 41.0 °F 33.1 °F 37.4 °F 87% 29.28 in 4.0 mi WSW 15.0 mph 20.7 mph 0.01 in Rain Light Rain
10:15 AM 41.0 °F 32.8 °F 37.4 °F 87% 29.28 in 4.0 mi WSW 16.1 mph 20.7 mph 0.01 in Rain Rain
10:33 AM 41.0 °F 34.3 °F 37.4 °F 87% 29.28 in 3.0 mi WSW 11.5 mph - 0.01 in Rain Light Rain
10:35 AM 41.0 °F 33.9 °F 37.4 °F 87% 29.28 in 3.0 mi WSW 12.7 mph - 0.01 in Rain Light Rain
11:13 AM 41.0 °F 33.5 °F 37.4 °F 87% 29.28 in 7.0 mi WSW 13.8 mph - N/A   Overcast
11:15 AM 41.0 °F 33.1 °F 37.4 °F 87% 29.28 in 7.0 mi WSW 15.0 mph - N/A   Overcast
11:33 AM 42.8 °F 36.2 °F 39.2 °F 87% 29.28 in 7.0 mi WSW 12.7 mph 19.6 mph N/A   Mostly Cloudy
11:35 AM 41.0 °F 33.1 °F 37.4 °F 87% 29.28 in 7.0 mi WSW 15.0 mph 19.6 mph N/A   Mostly Cloudy
11:53 AM 42.8 °F 35.4 °F 39.2 °F 87% 29.27 in 10.0 mi WSW 15.0 mph 19.6 mph N/A   Scattered Clouds
11:55 AM 42.8 °F 35.4 °F 37.4 °F 81% 29.27 in 10.0 mi WSW 15.0 mph 19.6 mph N/A   Scattered Clouds
12:13 PM 42.8 °F 36.2 °F 39.2 °F 87% 29.28 in 10.0 mi WSW 12.7 mph 18.4 mph N/A   Scattered Clouds
12:15 PM 41.0 °F 33.5 °F 37.4 °F 87% 29.28 in 10.0 mi WSW 13.8 mph 18.4 mph N/A   Scattered Clouds
12:33 PM 42.8 °F 35.4 °F 37.4 °F 81% 29.28 in 7.0 mi WSW 15.0 mph 18.4 mph N/A   Light Drizzle
12:35 PM 41.0 °F 34.3 °F 37.4 °F 87% 29.28 in 7.0 mi WSW 11.5 mph - N/A   Scattered Clouds
12:53 PM 42.8 °F 35.8 °F 39.2 °F 87% 29.27 in 10.0 mi WSW 13.8 mph - N/A   Scattered Clouds
12:55 PM 42.8 °F 35.1 °F 37.4 °F 81% 29.27 in 10.0 mi WSW 16.1 mph - N/A   Scattered Clouds
1:13 PM 42.8 °F 38.0 °F 39.2 °F 87% 29.27 in 4.0 mi West 8.1 mph - N/A Rain Light Rain
1:15 PM 41.0 °F 35.2 °F 37.4 °F 87% 29.27 in 3.0 mi WSW 9.2 mph - N/A Rain Light Rain
1:33 PM 42.8 °F 36.2 °F 39.2 °F 87% 29.27 in 10.0 mi SW 12.7 mph - N/A   Mostly Cloudy
1:35 PM 42.8 °F 35.4 °F 39.2 °F 87% 29.27 in 10.0 mi SW 15.0 mph - N/A   Mostly Cloudy
1:53 PM 42.8 °F 36.2 °F 39.2 °F 87% 29.28 in 2.5 mi SW 12.7 mph - N/A Rain Light Rain
1:55 PM 42.8 °F 36.6 °F 39.2 °F 87% 29.28 in 2.5 mi SW 11.5 mph - 0.01 in Rain Light Rain
2:13 PM 42.8 °F 35.1 °F 41.0 °F 93% 29.28 in 3.0 mi WSW 16.1 mph - N/A Rain Light Rain
2:15 PM 42.8 °F 35.8 °F 39.2 °F 87% 29.28 in 2.5 mi WSW 13.8 mph 18.4 mph N/A Rain Light Rain
2:33 PM 42.8 °F 35.8 °F 39.2 °F 87% 29.28 in 4.0 mi SW 13.8 mph - N/A Rain Light Rain
2:35 PM 42.8 °F 35.8 °F 39.2 °F 87% 29.28 in 3.0 mi SW 13.8 mph - N/A Rain Rain
2:53 PM 42.8 °F 36.2 °F 39.2 °F 87% 29.28 in 5.0 mi WSW 12.7 mph 18.4 mph N/A   Light Drizzle
2:55 PM 42.8 °F 36.6 °F 39.2 °F 87% 29.28 in 5.0 mi WSW 11.5 mph 18.4 mph N/A   Overcast
3:13 PM 44.6 °F 37.4 °F 41.0 °F 87% 29.29 in 7.0 mi WSW 16.1 mph - N/A   Mostly Cloudy
3:15 PM 42.8 °F 36.2 °F 41.0 °F 93% 29.29 in 7.0 mi WSW 12.7 mph - N/A   Mostly Cloudy
3:33 PM 42.8 °F 37.0 °F 41.0 °F 93% 29.29 in 4.0 mi WSW 10.4 mph - N/A Rain Rain
3:35 PM 42.8 °F 36.2 °F 41.0 °F 93% 29.29 in 3.0 mi West 12.7 mph - N/A Rain Light Rain
3:53 PM 44.6 °F 39.2 °F 41.0 °F 87% 29.29 in 10.0 mi WSW 10.4 mph - N/A   Scattered Clouds
3:55 PM 42.8 °F 37.0 °F 41.0 °F 93% 29.29 in 10.0 mi WSW 10.4 mph - N/A   Scattered Clouds
4:13 PM 44.6 °F 38.8 °F 39.2 °F 81% 29.30 in 10.0 mi WSW 11.5 mph - N/A   Clear
4:15 PM 42.8 °F 36.6 °F 39.2 °F 87% 29.29 in 10.0 mi WSW 11.5 mph - N/A   Scattered Clouds
4:33 PM 44.6 °F 38.8 °F 39.2 °F 81% 29.30 in 10.0 mi WSW 11.5 mph - N/A   Clear
4:35 PM 44.6 °F 38.4 °F 39.2 °F 81% 29.30 in 10.0 mi WSW 12.7 mph - N/A   Scattered Clouds
4:53 PM 44.6 °F 38.8 °F 39.2 °F 81% 29.30 in 10.0 mi SW 11.5 mph 16.1 mph N/A   Scattered Clouds
4:55 PM 44.6 °F 38.4 °F 39.2 °F 81% 29.30 in 10.0 mi SW 12.7 mph - N/A   Scattered Clouds
5:13 PM 44.6 °F 38.4 °F 39.2 °F 81% 29.31 in 10.0 mi SW 12.7 mph - N/A   Light Drizzle
5:15 PM 44.6 °F 38.8 °F 37.4 °F 76% 29.31 in 10.0 mi SW 11.5 mph - N/A   Light Drizzle
5:33 PM 44.6 °F 38.8 °F 39.2 °F 81% 29.31 in 10.0 mi SW 11.5 mph - N/A   Clear
5:35 PM 42.8 °F 37.0 °F 39.2 °F 87% 29.31 in 10.0 mi SW 10.4 mph - N/A   Clear
5:53 PM 44.6 °F 39.2 °F 39.2 °F 81% 29.31 in 10.0 mi SW 10.4 mph - N/A   Scattered Clouds
5:55 PM 42.8 °F 37.5 °F 37.4 °F 81% 29.31 in 10.0 mi SW 9.2 mph - N/A   Clear
6:13 PM 42.8 °F 38.0 °F 39.2 °F 87% 29.32 in 10.0 mi SW 8.1 mph - N/A   Clear
6:15 PM 42.8 °F 38.0 °F 37.4 °F 81% 29.32 in 10.0 mi SW 8.1 mph - N/A   Clear
6:53 PM 42.8 °F 38.0 °F 39.2 °F 87% 29.33 in 10.0 mi SSW 8.1 mph - N/A   Clear
6:55 PM 42.8 °F 38.6 °F 37.4 °F 81% 29.33 in 10.0 mi SSW 6.9 mph - N/A   Clear
7:13 PM 42.8 °F 39.3 °F 39.2 °F 87% 29.34 in 10.0 mi SSW 5.8 mph - N/A   Clear
7:15 PM 42.8 °F 38.6 °F 37.4 °F 81% 29.34 in 10.0 mi SSW 6.9 mph - N/A   Clear
7:33 PM 42.8 °F 39.3 °F 39.2 °F 87% 29.34 in 10.0 mi SSW 5.8 mph - N/A   Clear
7:35 PM 42.8 °F 39.3 °F 37.4 °F 81% 29.34 in 10.0 mi SSW 5.8 mph - N/A   Clear
7:53 PM 42.8 °F 39.3 °F 39.2 °F 87% 29.34 in 10.0 mi SSW 5.8 mph - N/A   Clear
7:55 PM 42.8 °F 38.6 °F 39.2 °F 87% 29.34 in 10.0 mi SSW 6.9 mph - N/A   Clear
8:13 PM 42.8 °F 39.3 °F 39.2 °F 87% 29.34 in 10.0 mi SSW 5.8 mph - N/A   Clear
8:15 PM 42.8 °F 39.3 °F 39.2 °F 87% 29.34 in 10.0 mi SSW 5.8 mph - N/A   Clear
8:33 PM 42.8 °F 39.3 °F 39.2 °F 87% 29.35 in 10.0 mi SSW 5.8 mph - N/A   Clear
8:53 PM 42.8 °F 40.1 °F 39.2 °F 87% 29.35 in 10.0 mi SSW 4.6 mph - N/A   Clear
8:55 PM 42.8 °F 40.1 °F 39.2 °F 87% 29.35 in 10.0 mi SSW 4.6 mph - N/A   Scattered Clouds
9:13 PM 42.8 °F 40.1 °F 39.2 °F 87% 29.35 in 10.0 mi SSW 4.6 mph - N/A   Mostly Cloudy
9:15 PM 42.8 °F 41.1 °F 39.2 °F 87% 29.35 in 10.0 mi SSW 3.5 mph - N/A   Mostly Cloudy
9:33 PM 42.8 °F 40.1 °F 39.2 °F 87% 29.35 in 10.0 mi SSW 4.6 mph - N/A   Overcast
9:35 PM 42.8 °F 41.1 °F 39.2 °F 87% 29.35 in 10.0 mi SSW 3.5 mph - N/A   Overcast
9:53 PM 42.8 °F 41.1 °F 41.0 °F 93% 29.36 in 4.0 mi SW 3.5 mph - N/A   Drizzle
9:55 PM 42.8 °F 41.1 °F 41.0 °F 93% 29.36 in 3.0 mi SW 3.5 mph - N/A   Drizzle
10:13 PM 42.8 °F 41.1 °F 41.0 °F 93% 29.36 in 3.0 mi SW 3.5 mph - N/A Rain Rain
10:53 PM 42.8 °F 39.3 °F 42.8 °F 100% 29.36 in 10.0 mi WNW 5.8 mph - N/A   Overcast
10:55 PM 42.8 °F 40.1 °F 41.0 °F 93% 29.36 in 10.0 mi WNW 4.6 mph - N/A   Overcast
11:33 PM 42.8 °F 40.1 °F 41.0 °F 93% 29.36 in 10.0 mi NNW 4.6 mph - N/A   Scattered Clouds